Location: Newark
(38.1089°N, 103.8675°W)
Time: 04:37:46
(UTC+00:00)

Hubble Space Telescope - Visible Passes

Search period start: 09 December 2019 00:00
Search period end: 19 December 2019 00:00
Orbit: 536 x 540 km, 28.5° (Epoch: 08 December)

Date Brightness Start Highest point End Pass type
(mag) Time Alt. Az. Time Alt. Az. Time Alt. Az.
13 Dec 3.4 13:24:56 10° SSW 13:27:28 16° SSE 13:30:01 10° SE visible
14 Dec 3.3 13:13:58 10° SSW 13:16:46 18° S 13:19:33 10° SE visible
15 Dec 3.1 13:03:06 10° SW 13:06:03 19° S 13:09:01 10° SE visible
16 Dec 3.8 11:15:54 11° SSE 11:15:54 11° SSE 11:16:15 10° SE visible
16 Dec 3.0 12:52:17 10° SW 12:55:21 20° S 12:58:26 10° SE visible
17 Dec 3.9 11:06:09 10° SE 11:06:09 10° SE 11:06:10 10° SE visible
17 Dec 2.8 12:41:31 10° SW 12:44:40 21° S 12:47:48 10° SE visible
18 Dec 2.7 12:31:40 14° SW 12:33:58 21° S 12:37:08 10° SE visible
